This demonstration page uses our WeatherBlox Daily Observations layout. Learn more.

Left ArrowRight Arrow

44.89941, -97.11507

Hourly Observations for November 2, 2016

Temp ( °F °C ) Dew Point ( °F °C ) Humidity (%) Winds ( mph kmh ) Pressure ( in mb ) Visibility ( mi km ) Precip ( " mm )
12:53 am 00:53 Cloudy 45 7.2 43 6.1 93 93 S 5 7 30.09 1019 10 16 0.00 0.00
1:53 am 01:53 Cloudy 49 9.4 42 5.6 77 77 SE 8 13 30.08 1019 10 16 0.00 0.00
2:53 am 02:53 Cloudy 47 8.3 43 6.1 86 86 S 7 11 30.09 1019 10 16 0.00 0.03
3:53 am 03:53 Cloudy 48 8.9 43 6.1 83 83 S 3 6 30.09 1019 10 16 0.00 0.00
4:53 am 04:53 Cloudy 48 8.9 43 6.1 83 83 S 5 7 30.07 1018 10 16 0.00 0.00
5:53 am 05:53 Mostly Cloudy 48 8.9 43 6.1 83 83 S 8 13 30.11 1020 10 16 0.00 0.00
6:53 am 06:53 Cloudy 49 9.4 43 6.1 80 80 S 8 13 30.13 1020 10 16 0.00 0.00
7:53 am 07:53 Cloudy 48 8.9 43 6.1 83 83 Calm 30.15 1021 10 16 0.00 0.00
8:53 am 08:53 Cloudy 49 9.4 44 6.7 83 83 Calm 30.18 1022 10 16 0.00 0.03
9:53 am 09:53 Mostly Cloudy 51 10.6 45 7.2 80 80 ENE 3 6 30.17 1022 10 16 0.00 0.00
10:53 am 10:53 Mostly Cloudy 53 11.7 45 7.2 74 74 Calm 30.19 1022 10 16 0.00 0.00
11:53 am 11:53 Cloudy 55 12.8 46 7.8 72 72 SW 7 11 30.19 1022 10 16 0.00 0.00
12:53 pm 12:53 Mostly Sunny 58 14.4 44 6.7 60 60 SSW 9 15 30.18 1022 10 16 0.00 0.00
1:53 pm 13:53 Sunny 58 14.4 45 7.2 62 62 S 7 11 30.16 1022 10 16 0.00 0.00
2:53 pm 14:53 Sunny 59 15 45 7.2 60 60 S 10 17 30.16 1021 10 16 0.00 0.00
3:53 pm 15:53 Sunny 63 17.2 43 6.1 48 48 SW 14 22 30.15 1021 10 16 0.00 0.00
4:53 pm 16:53 Sunny 60 15.6 43 6.1 53 53 WSW 8 13 30.17 1022 10 16 0.00 0.00
5:53 pm 17:53 Sunny 56 13.3 44 6.7 65 65 WSW 8 13 30.16 1022 10 16 0.00 0.00
6:53 pm 18:53 Clear 48 8.9 41 5 77 77 WSW 8 13 30.18 1022 10 16 0.00 0.00
7:53 pm 19:53 Clear 49 9.4 42 5.6 77 77 Calm 30.20 1023 10 16 0.00 0.00
8:53 pm 20:53 Clear 46 7.8 41 5 83 83 WNW 3 6 30.22 1023 10 16 0.00 0.00
9:53 pm 21:53 Clear 42 5.6 39 3.9 89 89 Calm 30.23 1024 10 16 0.00 0.00
10:53 pm 22:53 Clear 40 4.4 39 3.9 97 97 SSE 3 6 30.24 1024 10 16 0.00 0.00
11:53 pm 23:53 Clear 41 5 40 4.4 96 96 S 5 7 30.23 1024 10 16 0.00 0.00

Powered by AerisWeather